Regional Weather Roundup
Issued by NWS

Home | Current Version | Previous Version | Graphics & Text | Print | Product List | Glossary On
Versions: 1 2 3 4 5 6 7 8 9 10 11 12 13 14 15 16 17 18 19 20 21 22 23 24 25 26 27 28 29 30 31 32 33 34 35 36 37 38 39 40 41 42 43 44 45 46 47 48 49 50
000
ASUS43 KTOP 022008
RWRKS

WEATHER ROUNDUP FOR KANSAS
NATIONAL WEATHER SERVICE GOODLAND KS
200 PM CST MON MAR 02 2015

NOTE:  "FAIR" INDICATES FEW OR NO CLOUDS BELOW 12,000 FEET WITH NO
SIGNIFICANT WEATHER AND/OR OBSTRUCTIONS TO VISIBILITY.

KSZ001>006-013>018-027>032-041>047-022100-
NORTHWEST KANSAS

CITY           SKY/WX    TMP DP  RH WIND       PRES   REMARKS
GOODLAND       CLOUDY    29  23  78 S26G36    29.96F WCI  14
HAYS           CLOUDY    34  16  47 S22       30.17F WCI  22
HILL CITY      PTSUNNY   34  20  56 S18G30    30.12F WCI  23
RUSSELL        CLOUDY    34  19  54 S21       30.18F WCI  22
$$

KSZ061>065-074>080-084>089-022100-
SOUTHWEST KANSAS

CITY           SKY/WX    TMP DP  RH WIND       PRES   REMARKS
DODGE CITY     CLOUDY    31  21  66 S15       30.13F WCI  20
ELKHART          N/A     33  24  69 S15         N/A  WCI  23
GARDEN CITY    CLOUDY    30  25  81 S18G28    30.06F WCI  18
GREAT BEND     CLOUDY    34  18  51 S21G26    30.18F WCI  22
LIBERAL        CLOUDY    32  27  80 S17       30.11F WCI  21
PRATT          CLOUDY    32  21  64 S13       30.20F WCI  22
$$

KSZ066>073-081>083-090>101-022100-
SOUTHEAST KANSAS

CITY           SKY/WX    TMP DP  RH WIND       PRES   REMARKS
CHANUTE        CLOUDY    37  22  54 E12       30.31  WCI  29
COFFEYVILLE    CLOUDY    37  25  61 SE9       30.31F
HUTCHINSON     CLOUDY    36  20  52 SE12      30.22  WCI  28
MEDICINE LODGE   N/A     32  21  64 S9        30.21F
NEWTON         CLOUDY    34  18  51 SE17      30.25F WCI  23
PARSONS        CLOUDY    38  22  52 SE6       30.32F
WICHITA INTL   CLOUDY    35  19  52 SE10      30.24F WCI  27
WICHITA JABRA  CLOUDY    34  19  54 SE15      30.23F WCI  24
WICHITA MCCONL CLOUDY    35  20  53 E12       30.23F WCI  27
WINFIELD       CLOUDY    36  27  69 SE10      30.26F WCI  28
$$

KSZ007>012-019>026-033>040-048>060-102>105-022100-
NORTHEAST KANSAS

CITY           SKY/WX    TMP DP  RH WIND       PRES   REMARKS
CONCORDIA        N/A     40  18  41 S20G28    30.22F WCI  30
EMPORIA        CLOUDY    34  19  54 SE14      30.27  WCI  25
LAWRENCE       MOSUNNY   39  19  44 SE15G22   30.33  WCI  31
MANHATTAN      PTSUNNY   40  19  43 SE16G28   30.27  WCI  31
MARYSVILLE     PTSUNNY   39  21  48 S16G22    30.25F WCI  30
OLATHE IND     PTSUNNY   35  20  54 SE14      30.34F WCI  26
OLATHE EXE     PTSUNNY   37  20  50 E15       30.32F WCI  28
SALINA         CLOUDY    37  18  46 SE16      30.25F WCI  28
TOPEKA BILLARD MOSUNNY   39  19  44 SE15      30.32F WCI  31
TOPEKA FORBES  MOSUNNY   40  20  44 SE16G23   30.30F WCI  31
$$


USA.gov is the U.S. government's official web portal to all federal, state and local government web resources and services.